Regional Weather Roundup
Issued by NWS Cleveland, OH

Home | Current Version | Previous Version | Graphics & Text | Print | Product List | Glossary On
Versions: 1 2 3 4 5 6 7 8 9 10 11 12 13 14 15 16 17 18 19 20 21 22 23 24 25 26 27 28 29 30 31 32 33 34 35 36 37 38 39 40 41 42 43 44 45 46 47 48 49 50
000
ASUS41 KCLE 070200
RWRCLE
OHIO REGIONAL WEATHER ROUNDUP
NATIONAL WEATHER SERVICE WILMINGTON, OH
1000 PM EDT WED MAY 06 2015

NOTE: "FAIR" INDICATES FEW OR NO CLOUDS BELOW 12,000 FEET WITH NO
SIGNIFICANT WEATHER AND/OR OBSTRUCTIONS TO VISIBILITY.

OHZ001>008-015>018-024>027-034-035-043-044-070300-
   NORTHWEST OHIO

CITY           SKY/WX    TMP DP  RH WIND       PRES   REMARKS
DEFIANCE       CLEAR     65  58  78 E8        30.16R
FINDLAY        CLEAR     65  57  75 E7        30.15R
TOLEDO EXPRESS CLEAR     58  54  86 E6        30.17R
TOLEDO EXEC    CLEAR     58  53  84 E5        30.18R
LIMA           CLEAR     68  59  73 NE9       30.15R
$$

OHZ009>014-019>023-028>033-038-089-070300-
   NORTHEAST OHIO

CITY           SKY/WX    TMP DP  RH WIND       PRES   REMARKS
CLE-HOPKINS    PTCLDY    60  55  83 NE5       30.19R
CLE-LAKEFRONT  CLEAR     53  51  93 CALM      30.17R
CUY CO. ARPT   PTCLDY    61  57  88 E5        30.17S
LORAIN-ELYRIA  CLEAR     60  54  80 N3        30.17R
ASHTABULA      CLEAR     58  55  90 CALM      30.19R
AKRON-CANTON   CLEAR     68  56  65 NE5       30.17R
WOOSTER        NOT AVBL
MANSFIELD      CLEAR     64  58  80 NE5       30.17S
YOUNGSTOWN     PTCLDY    65  56  72 VRB5      30.18R
$$

OHZ042-051>053-060>062-070>072-077>081-070300-
  SOUTHWEST OHIO

CITY           SKY/WX    TMP DP  RH WIND       PRES   REMARKS
CINC-COVINGTON CLEAR     72  54  53 CALM      30.12R
CINC-LUNKEN    CLEAR     64  59  83 CALM      30.11R
HAMILTON       CLEAR     65  58  78 CALM      30.12R
DAYTON         NOT AVBL
WRIGHT-PAT AFB NOT AVBL
DAYTON GENERAL CLEAR     72  55  55 NE3       30.12R
WILMINGTON     CLEAR     71  50  47 CALM      30.13R
$$

OHZ036-037-039>041-045>050-054>059-063>069-073>076-082>088-070300-
  CENTRAL AND SOUTHEAST OHIO

CITY           SKY/WX    TMP DP  RH WIND       PRES   REMARKS
COLUMBUS       CLEAR     72  56  57 NE6       30.12R
OSU AIRPORT    CLEAR     70  56  61 NE6       30.13R
BOLTON FIELD   NOT AVBL
RICKENBACK AFB NOT AVBL
NEWARK         CLEAR     66  58  75 CALM      30.13R
MARION         CLEAR     66  59  78 NE8       30.15R
LANCASTER      CLEAR     66  57  72 CALM      30.13R
ZANESVILLE     CLEAR     70  56  61 NW3       30.14R
NEW PHILLY     CLEAR     74  58  57 NE3       30.16R
$$



USA.gov is the U.S. government's official web portal to all federal, state and local government web resources and services.